This is the latest recevied weather packets stored in our database for station/object OK2JV-13. If no packets are shown the sender has not sent any weather packets the latest 10 day(s).
| Time | Temp. | Humidity | Pressure | Rain* | Wind** | Luminosity | Snow |
|---|---|---|---|---|---|---|---|
| 1788253850 | 17.22° C | 62% | 1017.7 hPa | - | - | - | - |
| 1788253245 | 17.22° C | 63% | 1017.8 hPa | - | - | - | - |
| 1788252642 | 17.22° C | 62% | 1017.8 hPa | - | - | - | - |
| 1788252038 | 17.22° C | 64% | 1017.6 hPa | - | - | - | - |
| 1788251433 | 16.67° C | 64% | 1017.5 hPa | - | - | - | - |
| 1788250830 | 17.22° C | 64% | 1017.3 hPa | - | - | - | - |
| 1788250224 | 17.22° C | 65% | 1017.1 hPa | - | - | - | - |
| 1788249620 | 16.67° C | 65% | 1017.3 hPa | - | - | - | - |
| 1788249017 | 16.67° C | 67% | 1017.2 hPa | - | - | - | - |
| 1788248413 | 16.67° C | 68% | 1017 hPa | - | - | - | - |
| 1788247806 | 15.56° C | 70% | 1016.9 hPa | - | - | - | - |
| 1788247202 | 15.56° C | 71% | 1016.8 hPa | - | - | - | - |
| 1788246596 | 15° C | 71% | 1016.8 hPa | - | - | - | - |
| 1788245990 | 14.44° C | 72% | 1016.8 hPa | - | - | - | - |
| 1788245385 | 14.44° C | 74% | 1016.6 hPa | - | - | - | - |
| 1788244781 | 14.44° C | 75% | 1016.7 hPa | - | - | - | - |
| 1788244178 | 13.89° C | 76% | 1016.6 hPa | - | - | - | - |
| 1788243572 | 13.89° C | 76% | 1016.6 hPa | - | - | - | - |
| 1788242968 | 13.89° C | 77% | 1016.5 hPa | - | - | - | - |
| 1788242365 | 13.33° C | 77% | 1016.4 hPa | - | - | - | - |
| 1788241760 | 13.33° C | 77% | 1016.2 hPa | - | - | - | - |
| 1788241156 | 13.33° C | 77% | 1016.1 hPa | - | - | - | - |
| 1788240555 | 13.33° C | 76% | 1016 hPa | - | - | - | - |
| 1788239948 | 13.33° C | 76% | 1016 hPa | - | - | - | - |
| 1788239344 | 13.33° C | 76% | 1016 hPa | - | - | - | - |
* Rain since midnight (hover to see other rain measurements)
** Current wind speed in m/s (hover to see current wind gust speed)